EW1000 Weather Reports


time (UTC)temp
C
wind
direction
speed
KPH
gust
KPH
rain 1hr
cm
rain 24hr
cm
rain mn
cm
humidity
%
barometer
mb
20260505041542 23 219 0.0 6.4 0.00 0.00 0.00 71 1014.5
20260505040041 23 110 0.0 3.2 0.00 0.00 0.00 71 1014.6
20260505034539 23 56 0.0 4.8 0.00 0.00 0.00 72 1014.7
20260505033040 23 85 1.6 4.8 0.00 0.00 0.00 72 1014.9
20260505031550 23 117 1.6 6.4 0.00 0.00 0.00 74 1014.9
20260505030031 23 104 3.2 6.4 0.00 0.00 0.00 72 1015.0
20260505024544 23 112 1.6 6.4 0.00 0.00 0.00 72 1015.0
20260505023039 23 115 3.2 8.0 0.00 0.00 0.00 72 1015.0
20260505021529 23 120 0.0 12.9 0.00 0.00 0.00 72 1014.9
20260505020029 23 126 3.2 8.0 0.00 0.00 0.00 72 1014.9
20260505014535 23 105 3.2 9.7 0.00 0.00 0.00 72 1014.6
20260505013026 23 70 4.8 14.5 0.00 0.00 0.00 72 1014.5
20260505011527 24 80 1.6 12.9 0.00 0.00 0.00 71 1014.3
20260505010026 24 83 3.2 12.9 0.00 0.00 0.00 71 1014.1
20260505004526 24 89 6.4 11.3 0.00 0.00 0.00 70 1013.8
20260505003024 25 118 3.2 6.4 0.00 0.00 0.00 69 1013.5
20260505001524 25 89 3.2 9.7 0.00 0.00 0.00 69 1013.3
20260505000024 25 101 6.4 14.5 0.00 0.00 0.00 69 1013.3
20260504234524 25 109 4.8 17.7 0.00 0.00 0.00 68 1013.0
20260504233024 25 128 4.8 9.7 0.00 0.00 0.00 66 1012.8
20260504231521 26 101 4.8 16.1 0.00 0.00 0.00 65 1012.7
20260504230020 26 79 6.4 14.5 0.00 0.00 0.00 64 1012.5
20260504224520 26 143 3.2 14.5 0.00 0.00 0.00 62 1012.3
20260504223018 27 117 11.3 16.1 0.00 0.00 0.00 61 1012.1
20260504221517 27 128 3.2 11.3 0.00 0.00 0.00 60 1011.9
20260504220017 27 112 6.4 14.5 0.00 0.00 0.00 59 1011.7
20260504214519 27 49 8.0 12.9 0.00 0.00 0.00 58 1011.7
20260504213020 27 122 8.0 17.7 0.00 0.00 0.00 57 1011.6
20260504211517 28 139 8.0 16.1 0.00 0.00 0.00 53 1011.3
20260504210020 28 89 11.3 19.3 0.00 0.00 0.00 52 1011.3
20260504204526 28 82 6.4 16.1 0.00 0.00 0.00 50 1011.3
20260504203025 28 103 6.4 17.7 0.00 0.00 0.00 50 1011.3
20260504201509 29 186 6.4 22.5 0.00 0.00 0.00 50 1011.5
20260504200007 29 117 6.4 12.9 0.00 0.00 0.00 47 1011.6
20260504194504 29 94 6.4 16.1 0.00 0.00 0.00 49 1011.9
20260504193009 28 117 4.8 16.1 0.00 0.00 0.00 49 1011.9
20260504191501 28 126 8.0 17.7 0.00 0.00 0.00 49 1012.3
20260504190100 30 98 8.0 12.9 0.00 0.00 0.00 46 1012.3
20260504184601 28 162 3.2 14.5 0.00 0.00 0.00 47 1012.5
20260504183103 29 108 8.0 16.1 0.00 0.00 0.00 46 1012.7
20260504181552 29 58 12.9 17.7 0.00 0.00 0.00 45 1012.8
20260504174547 29 95 8.0 16.1 0.00 0.00 0.00 43 1013.1
20260504173058 28 120 4.8 19.3 0.00 0.00 0.00 44 1013.3
20260504171545 28 215 8.0 19.3 0.00 0.00 0.00 45 1013.6
20260504081508 -17 0.0 0.0 0.00 0.00 0.00 1013.3